QPF
0.09 0.13 0.12 0.11 0.13 0.13 0.11 0.10 0.08 0.07 0.04 0.06 0.05 0.02 0.01 0.01 0.01 0.00 0.00 0.00 0.00 0.00 0.00 0.00 0.00 0.00 0.00 0.00 0.00 0.00 0.00 0.00 0.00 0.00 0.00 0.00 0.00 0.00 0.00 0.00 0.00 0.00 0.00 0.00
0.09 0.08 0.04 0.05 0.06 0.09 0.11 0.10 0.06 0.06 0.05 0.02 0.02 0.01 0.01 0.01 0.00 0.00 0.00 0.00 0.00 0.00 0.00 0.00 0.00 0.00 0.00 0.00 0.00 0.00 0.00 0.00 0.00 0.00 0.00 0.00 0.00 0.00 0.00 0.00 0.01 0.00 0.00 0.00
0.04 0.05 0.05 0.05 0.07 0.08 0.08 0.08 0.05 0.03 0.04 0.02 0.01 0.01 0.01 0.01 0.01 0.01 0.00 0.00 0.00 0.00 0.00 0.00 0.00 0.00 0.00 0.00 0.00 0.00 0.00 0.00 0.00 0.00 0.00 0.00 0.00 0.00 0.00 0.00 0.00 0.00 0.00 0.00
0.05 0.05 0.05 0.05 0.06 0.06 0.04 0.03 0.02 0.02 0.03 0.02 0.01 0.01 0.00 0.00 0.01 0.01 0.01 0.00 0.00 0.01 0.01 0.00 0.00 0.00 0.00 0.00 0.00 0.00 0.00 0.00 0.00 0.00 0.00 0.00 0.00 0.00 0.00 0.00 0.00 0.00 0.00 0.01
0.04 0.04 0.05 0.03 0.02 0.01 0.01 0.01 0.01 0.00 0.01 0.01 0.00 0.00 0.00 0.00 0.00 0.00 0.00 0.00 0.00 0.00 0.00 0.00 0.00 0.00 0.00 0.00 0.00 0.00 0.00 0.00 0.00 0.00 0.00 0.00 0.00 0.00 0.00 0.00 0.00 0.00 0.01 0.01
0.02 0.02 0.02 0.01 0.01 0.00 0.00 0.00 0.00 0.00 0.00 0.00 0.01 0.01 0.00 0.00 0.00 0.00 0.00 0.00 0.00 0.00 0.01 0.01 0.00 0.00 0.00 0.00 0.00 0.00 0.00 0.00 0.00 0.00 0.00 0.00 0.00 0.00 0.00 0.00 0.00 0.00 0.00 0.01
0.00 0.00 0.00 0.00 0.00 0.00 0.00 0.00 0.00 0.01 0.01 0.01 0.01 0.00 0.00 0.00 0.00 0.00 0.00 0.00 0.00 0.00 0.00 0.00 0.00 0.00 0.00 0.00 0.00 0.00 0.00 0.00 0.00 0.00 0.00 0.00 0.00 0.00 0.00 0.00 0.00 0.00 0.00 0.00
0.00 0.00 0.00 0.00 0.00 0.00 0.00 0.00 0.01 0.01 0.01 0.01 0.01 0.00 0.00 0.00 0.00 0.00 0.00 0.00 0.00 0.00 0.00 0.00 0.00 0.00 0.00 0.00 0.00 0.00 0.00 0.00 0.00 0.00 0.00 0.00 0.00 0.00 0.00 0.00 0.00 0.00 0.00 0.00
0.00 0.00 0.00 0.00 0.00 0.00 0.00 0.00 0.01 0.01 0.00 0.00 0.01 0.00 0.00 0.00 0.00 0.00 0.00 0.00 0.00 0.00 0.00 0.00 0.00 0.00 0.00 0.00 0.00 0.00 0.00 0.00 0.00 0.00 0.00 0.00 0.00 0.00 0.00 0.00 0.00 0.00 0.00 0.00
0.00 0.00 0.00 0.00 0.00 0.00 0.00 0.00 0.00 0.00 0.00 0.00 0.00 0.00 0.00 0.00 0.00 0.00 0.00 0.00 0.00 0.00 0.00 0.00 0.00 0.00 0.00 0.00 0.00 0.00 0.00 0.00 0.00 0.00 0.00 0.00 0.00 0.00 0.00 0.00 0.00 0.00 0.00 0.00
0.00 0.00 0.00 0.00 0.00 0.00 0.00 0.00 0.00 0.00 0.00 0.00 0.00 0.00 0.00 0.00 0.00 0.00 0.00 0.00 0.00 0.00 0.00 0.00 0.00 0.00 0.00 0.00 0.00 0.00 0.00 0.00 0.00 0.00 0.00 0.00 0.00 0.00 0.00 0.00 0.00 0.00 0.00 0.00
0.00 0.00 0.00 0.00 0.00 0.00 0.00 0.00 0.00 0.00 0.00 0.00 0.00 0.00 0.00 0.00 0.00 0.00 0.00 0.00 0.00 0.00 0.00 0.00 0.00 0.00 0.00 0.00 0.00 0.00 0.00 0.00 0.00 0.00 0.00 0.00 0.00 0.00 0.00 0.00 0.00 0.00 0.00 0.00
0.00 0.00 0.00 0.00 0.00 0.00 0.00 0.00 0.00 0.00 0.00 0.00 0.00 0.00 0.00 0.00 0.00 0.00 0.00 0.00 0.00 0.00 0.00 0.00 0.00 0.00 0.00 0.00 0.00 0.00 0.00 0.00 0.00 0.00 0.00 0.00 0.00 0.00 0.00 0.00 0.00 0.00 0.00 0.00
0.00 0.00 0.00 0.00 0.00 0.00 0.00 0.00 0.00 0.00 0.00 0.00 0.00 0.00 0.00 0.00 0.00 0.00 0.00 0.00 0.00 0.00 0.00 0.00 0.00 0.00 0.00 0.00 0.00 0.00 0.00 0.00 0.00 0.00 0.00 0.00 0.00 0.00 0.00 0.00 0.00 0.00 0.00 0.00
0.00 0.00 0.00 0.00 0.00 0.00 0.00 0.00 0.00 0.00 0.00 0.00 0.00 0.00 0.00 0.00 0.00 0.00 0.00 0.00 0.00 0.00 0.00 0.00 0.00 0.00 0.00 0.00 0.00 0.00 0.00 0.00 0.00 0.00 0.00 0.00 0.00 0.00 0.00 0.00 0.00 0.00 0.00 0.00
0.00 0.00 0.00 0.00 0.00 0.00 0.00 0.00 0.00 0.00 0.00 0.00 0.00 0.00 0.00 0.00 0.00 0.00 0.00 0.00 0.00 0.00 0.00 0.00 0.00 0.00 0.00 0.00 0.00 0.00 0.00 0.00 0.00 0.00 0.00 0.00 0.00 0.00 0.00 0.00 0.00 0.00 0.00 0.00
0.00 0.00 0.00 0.00 0.00 0.00 0.00 0.00 0.00 0.00 0.00 0.00 0.00 0.00 0.00 0.00 0.00 0.00 0.00 0.00 0.00 0.00 0.00 0.00 0.00 0.00 0.00 0.00 0.00 0.00 0.00 0.00 0.00 0.00 0.00 0.00 0.00 0.00 0.00 0.00 0.00 0.00 0.00 0.00
0.00 0.00 0.00 0.00 0.00 0.00 0.00 0.00 0.00 0.00 0.00 0.00 0.00 0.00 0.00 0.00 0.00 0.00 0.00 0.00 0.00 0.00 0.00 0.00 0.00 0.00 0.00 0.00 0.00 0.00 0.00 0.00 0.00 0.00 0.00 0.00 0.00 0.00 0.00 0.00 0.00 0.00 0.00 0.00
0.00 0.00 0.00 0.00 0.00 0.00 0.00 0.00 0.00 0.00 0.00 0.00 0.00 0.00 0.00 0.00 0.00 0.00 0.00 0.00 0.00 0.00 0.00 0.00 0.00 0.00 0.00 0.00 0.00 0.00 0.00 0.00 0.00 0.00 0.00 0.00 0.00 0.00 0.00 0.00 0.00 0.00 0.00 0.00
0.00 0.00 0.00 0.00 0.00 0.00 0.00 0.00 0.00 0.00 0.00 0.00 0.00 0.00 0.00 0.00 0.00 0.00 0.00 0.00 0.00 0.00 0.00 0.00 0.00 0.00 0.00 0.00 0.00 0.00 0.00 0.00 0.00 0.00 0.00 0.00 0.00 0.00 0.00 0.00 0.00 0.00 0.00 0.00
0.00 0.00 0.00 0.00 0.00 0.00 0.00 0.00 0.00 0.00 0.00 0.00 0.00 0.00 0.00 0.00 0.00 0.00 0.00 0.00 0.00 0.00 0.00 0.00 0.00 0.00 0.00 0.00 0.00 0.00 0.00 0.00 0.00 0.00 0.00 0.00 0.00 0.00 0.00 0.00 0.00 0.00 0.00 0.00
0.00 0.00 0.00 0.00 0.00 0.00 0.00 0.00 0.00 0.00 0.00 0.00 0.00 0.00 0.00 0.00 0.00 0.00 0.00 0.00 0.00 0.00 0.00 0.00 0.00 0.00 0.00 0.00 0.00 0.00 0.00 0.00 0.00 0.00 0.00 0.00 0.00 0.00 0.00 0.00 0.00 0.00 0.00 0.00
0.00 0.00 0.00 0.00 0.00 0.00 0.00 0.00 0.00 0.00 0.00 0.00 0.00 0.00 0.00 0.00 0.00 0.00 0.00 0.00 0.00 0.00 0.00 0.00 0.00 0.00 0.00 0.00 0.00 0.00 0.00 0.00 0.00 0.00 0.00 0.00 0.00 0.00 0.00 0.00 0.00 0.00 0.00 0.00
0.00 0.00 0.00 0.00 0.00 0.00 0.00 0.00 0.00 0.00 0.00 0.00 0.00 0.00 0.00 0.00 0.00 0.00 0.00 0.00 0.00 0.00 0.00 0.00 0.00 0.00 0.00 0.00 0.00 0.00 0.00 0.00 0.00 0.00 0.00 0.00 0.00 0.00 0.00 0.00 0.00 0.00 0.00 0.00
0.00 0.00 0.00 0.00 0.00 0.00 0.00 0.00 0.00 0.00 0.00 0.00 0.00 0.00 0.00 0.00 0.00 0.00 0.00 0.00 0.00 0.00 0.00 0.00 0.00 0.00 0.00 0.00 0.00 0.00 0.00 0.00 0.00 0.00 0.00 0.00 0.00 0.00 0.00 0.00 0.00 0.00 0.00 0.00
0.00 0.00 0.00 0.00 0.00 0.00 0.00 0.00 0.00 0.00 0.00 0.00 0.00 0.00 0.00 0.00 0.00 0.00 0.00 0.00 0.00 0.00 0.00 0.00 0.00 0.00 0.00 0.00 0.00 0.00 0.00 0.00 0.00 0.00 0.00 0.00 0.00 0.00 0.00 0.00 0.00 0.00 0.00 0.00
MSLP
1012.90 1013.95 1014.76 1015.27 1015.49 1015.45 1015.22 1014.86 1014.42 1013.95 1013.46 1012.98 1012.49 1012.01 1011.55 1011.13 1010.78 1010.53 1010.39 1010.38 1010.47 1010.65 1010.88 1011.11 1011.32 1011.48 1011.59 1011.67 1011.75 1011.87 1012.06 1012.32 1012.65 1013.03 1013.41 1013.75 1014.01 1014.17 1014.20 1014.13 1013.99 1013.81 1013.63 1013.48
1013.18 1014.05 1014.65 1014.99 1015.09 1015.02 1014.82 1014.56 1014.27 1013.96 1013.64 1013.27 1012.86 1012.39 1011.88 1011.37 1010.92 1010.57 1010.35 1010.29 1010.38 1010.57 1010.83 1011.09 1011.32 1011.48 1011.57 1011.62 1011.67 1011.76 1011.94 1012.21 1012.57 1012.99 1013.42 1013.82 1014.12 1014.29 1014.33 1014.26 1014.10 1013.90 1013.72 1013.58
1013.26 1013.91 1014.32 1014.52 1014.55 1014.49 1014.38 1014.28 1014.19 1014.09 1013.95 1013.71 1013.36 1012.88 1012.30 1011.68 1011.10 1010.61 1010.29 1010.16 1010.21 1010.41 1010.69 1010.99 1011.25 1011.44 1011.54 1011.59 1011.62 1011.70 1011.86 1012.14 1012.51 1012.96 1013.43 1013.86 1014.19 1014.38 1014.44 1014.36 1014.20 1014.01 1013.83 1013.70
1013.13 1013.57 1013.81 1013.91 1013.93 1013.94 1014.00 1014.11 1014.27 1014.40 1014.45 1014.34 1014.03 1013.52 1012.85 1012.08 1011.32 1010.67 1010.20 1009.96 1009.96 1010.14 1010.44 1010.78 1011.09 1011.33 1011.47 1011.54 1011.59 1011.67 1011.83 1012.10 1012.48 1012.93 1013.41 1013.85 1014.20 1014.42 1014.49 1014.43 1014.29 1014.11 1013.95 1013.83
1012.84 1013.08 1013.19 1013.24 1013.30 1013.45 1013.72 1014.10 1014.52 1014.90 1015.14 1015.14 1014.87 1014.30 1013.50 1012.55 1011.59 1010.74 1010.09 1009.72 1009.63 1009.77 1010.09 1010.47 1010.84 1011.14 1011.35 1011.47 1011.55 1011.64 1011.81 1012.07 1012.43 1012.87 1013.35 1013.79 1014.14 1014.37 1014.46 1014.43 1014.32 1014.17 1014.03 1013.94
1012.45 1012.53 1012.55 1012.60 1012.76 1013.09 1013.59 1014.24 1014.94 1015.56 1015.97 1016.07 1015.80 1015.16 1014.21 1013.07 1011.89 1010.82 1009.99 1009.46 1009.26 1009.35 1009.66 1010.08 1010.51 1010.89 1011.16 1011.35 1011.47 1011.59 1011.75 1012.00 1012.34 1012.76 1013.20 1013.63 1013.98 1014.22 1014.33 1014.34 1014.26 1014.16 1014.06 1013.99
1012.05 1012.00 1011.97 1012.06 1012.35 1012.87 1013.61 1014.52 1015.46 1016.28 1016.84 1017.01 1016.73 1016.01 1014.92 1013.59 1012.20 1010.93 1009.91 1009.22 1008.91 1008.93 1009.22 1009.65 1010.13 1010.57 1010.91 1011.16 1011.33 1011.47 1011.64 1011.88 1012.19 1012.56 1012.97 1013.37 1013.71 1013.96 1014.09 1014.13 1014.11 1014.05 1013.99 1013.96
1011.73 1011.60 1011.56 1011.70 1012.11 1012.80 1013.75 1014.86 1015.98 1016.95 1017.60 1017.81 1017.51 1016.72 1015.51 1014.04 1012.49 1011.05 1009.87 1009.05 1008.62 1008.57 1008.81 1009.24 1009.74 1010.21 1010.60 1010.90 1011.11 1011.28 1011.45 1011.67 1011.95 1012.29 1012.66 1013.03 1013.35 1013.60 1013.76 1013.83 1013.85 1013.84 1013.82 1013.84
1011.54 1011.38 1011.36 1011.56 1012.07 1012.88 1013.95 1015.18 1016.39 1017.43 1018.12 1018.33 1018.01 1017.17 1015.90 1014.35 1012.70 1011.16 1009.88 1008.96 1008.44 1008.31 1008.49 1008.88 1009.36 1009.84 1010.25 1010.58 1010.81 1011.00 1011.18 1011.39 1011.64 1011.95 1012.29 1012.63 1012.94 1013.19 1013.36 1013.47 1013.52 1013.55 1013.58 1013.63
1011.55 1011.39 1011.40 1011.65 1012.21 1013.06 1014.16 1015.40 1016.61 1017.63 1018.29 1018.48 1018.14 1017.29 1016.02 1014.46 1012.82 1011.26 1009.95 1008.97 1008.40 1008.19 1008.30 1008.62 1009.04 1009.49 1009.88 1010.20 1010.45 1010.65 1010.83 1011.04 1011.29 1011.58 1011.90 1012.23 1012.53 1012.77 1012.96 1013.09 1013.17 1013.23 1013.29 1013.37
1011.76 1011.65 1011.69 1011.96 1012.50 1013.31 1014.33 1015.46 1016.56 1017.47 1018.05 1018.19 1017.84 1017.03 1015.82 1014.36 1012.80 1011.32 1010.06 1009.10 1008.49 1008.22 1008.24 1008.46 1008.80 1009.16 1009.50 1009.80 1010.03 1010.24 1010.44 1010.66 1010.92 1011.22 1011.54 1011.86 1012.16 1012.41 1012.60 1012.74 1012.84 1012.92 1012.99 1013.09
1012.14 1012.10 1012.18 1012.43 1012.90 1013.58 1014.44 1015.37 1016.27 1016.99 1017.44 1017.51 1017.16 1016.42 1015.35 1014.05 1012.68 1011.36 1010.21 1009.31 1008.71 1008.38 1008.31 1008.41 1008.62 1008.88 1009.13 1009.37 1009.59 1009.80 1010.02 1010.27 1010.56 1010.88 1011.22 1011.56 1011.86 1012.11 1012.31 1012.46 1012.56 1012.65 1012.73 1012.83
1012.66 1012.70 1012.80 1013.01 1013.36 1013.85 1014.46 1015.13 1015.75 1016.25 1016.53 1016.52 1016.19 1015.56 1014.67 1013.60 1012.47 1011.37 1010.39 1009.60 1009.02 1008.65 1008.48 1008.45 1008.51 1008.63 1008.78 1008.94 1009.12 1009.33 1009.58 1009.87 1010.20 1010.57 1010.94 1011.30 1011.62 1011.88 1012.09 1012.23 1012.34 1012.42 1012.51 1012.61
1013.24 1013.35 1013.46 1013.61 1013.81 1014.08 1014.42 1014.78 1015.11 1015.35 1015.45 1015.36 1015.07 1014.56 1013.88 1013.08 1012.22 1011.38 1010.60 1009.93 1009.39 1008.99 1008.72 1008.54 1008.45 1008.42 1008.44 1008.52 1008.65 1008.85 1009.12 1009.45 1009.83 1010.24 1010.66 1011.05 1011.39 1011.67 1011.88 1012.03 1012.14 1012.22 1012.31 1012.40
1013.82 1013.99 1014.09 1014.16 1014.21 1014.26 1014.32 1014.37 1014.41 1014.41 1014.35 1014.19 1013.93 1013.56 1013.10 1012.56 1011.98 1011.39 1010.82 1010.28 1009.79 1009.36 1008.99 1008.67 1008.42 1008.24 1008.13 1008.11 1008.19 1008.37 1008.64 1009.00 1009.42 1009.87 1010.32 1010.74 1011.11 1011.40 1011.63 1011.79 1011.91 1012.00 1012.09 1012.18
1014.35 1014.55 1014.63 1014.62 1014.52 1014.37 1014.17 1013.96 1013.75 1013.54 1013.33 1013.11 1012.89 1012.66 1012.40 1012.11 1011.79 1011.43 1011.04 1010.63 1010.18 1009.72 1009.26 1008.82 1008.42 1008.09 1007.86 1007.74 1007.75 1007.89 1008.15 1008.52 1008.95 1009.42 1009.89 1010.32 1010.70 1011.02 1011.26 1011.45 1011.59 1011.70 1011.81 1011.91
1014.79 1014.98 1015.03 1014.94 1014.72 1014.40 1014.01 1013.58 1013.17 1012.79 1012.48 1012.23 1012.05 1011.93 1011.84 1011.75 1011.64 1011.48 1011.25 1010.93 1010.53 1010.05 1009.52 1008.97 1008.44 1007.99 1007.63 1007.42 1007.35 1007.43 1007.66 1008.00 1008.41 1008.87 1009.33 1009.76 1010.14 1010.47 1010.74 1010.95 1011.13 1011.29 1011.42 1011.56
1015.13 1015.28 1015.28 1015.11 1014.79 1014.35 1013.82 1013.25 1012.70 1012.22 1011.84 1011.57 1011.43 1011.39 1011.43 1011.50 1011.55 1011.54 1011.42 1011.18 1010.81 1010.32 1009.74 1009.12 1008.50 1007.95 1007.50 1007.19 1007.03 1007.04 1007.20 1007.48 1007.83 1008.23 1008.65 1009.05 1009.42 1009.75 1010.04 1010.29 1010.52 1010.73 1010.92 1011.10
1015.37 1015.45 1015.37 1015.14 1014.74 1014.22 1013.60 1012.96 1012.34 1011.80 1011.39 1011.13 1011.02 1011.04 1011.17 1011.34 1011.49 1011.57 1011.54 1011.36 1011.02 1010.53 1009.94 1009.28 1008.61 1007.99 1007.47 1007.08 1006.84 1006.76 1006.82 1007.00 1007.26 1007.57 1007.90 1008.24 1008.57 1008.88 1009.19 1009.48 1009.77 1010.04 1010.30 1010.54
1015.53 1015.50 1015.34 1015.03 1014.57 1014.01 1013.36 1012.69 1012.06 1011.51 1011.10 1010.85 1010.76 1010.82 1010.99 1011.21 1011.42 1011.56 1011.58 1011.44 1011.14 1010.69 1010.10 1009.45 1008.77 1008.12 1007.56 1007.11 1006.80 1006.62 1006.56 1006.61 1006.74 1006.93 1007.15 1007.40 1007.66 1007.95 1008.25 1008.58 1008.92 1009.26 1009.60 1009.90
1015.61 1015.45 1015.18 1014.79 1014.30 1013.71 1013.07 1012.42 1011.81 1011.29 1010.90 1010.67 1010.60 1010.68 1010.86 1011.09 1011.32 1011.49 1011.54 1011.44 1011.19 1010.78 1010.25 1009.63 1008.99 1008.35 1007.78 1007.29 1006.91 1006.63 1006.46 1006.37 1006.35 1006.38 1006.47 1006.60 1006.78 1007.01 1007.30 1007.64 1008.02 1008.43 1008.83 1009.21
1015.60 1015.29 1014.91 1014.45 1013.92 1013.34 1012.72 1012.11 1011.55 1011.09 1010.74 1010.54 1010.48 1010.56 1010.73 1010.96 1011.18 1011.35 1011.42 1011.36 1011.16 1010.82 1010.36 1009.82 1009.24 1008.66 1008.10 1007.60 1007.16 1006.80 1006.50 1006.27 1006.09 1005.97 1005.90 1005.90 1005.98 1006.14 1006.39 1006.72 1007.13 1007.57 1008.04 1008.48
1015.47 1015.02 1014.53 1014.00 1013.45 1012.87 1012.30 1011.76 1011.27 1010.87 1010.58 1010.41 1010.37 1010.44 1010.59 1010.79 1011.00 1011.16 1011.24 1011.22 1011.08 1010.82 1010.46 1010.01 1009.52 1008.99 1008.48 1007.98 1007.51 1007.07 1006.67 1006.30 1005.98 1005.70 1005.48 1005.34 1005.30 1005.37 1005.56 1005.87 1006.27 1006.73 1007.23 1007.72
1015.19 1014.60 1014.02 1013.44 1012.87 1012.33 1011.82 1011.36 1010.96 1010.63 1010.40 1010.27 1010.25 1010.31 1010.44 1010.62 1010.80 1010.95 1011.04 1011.06 1010.97 1010.79 1010.52 1010.18 1009.77 1009.33 1008.86 1008.37 1007.88 1007.39 1006.91 1006.43 1005.97 1005.55 1005.20 1004.93 1004.76 1004.73 1004.85 1005.09 1005.46 1005.91 1006.42 1006.94
1014.73 1014.03 1013.37 1012.76 1012.21 1011.71 1011.28 1010.91 1010.60 1010.37 1010.21 1010.13 1010.12 1010.19 1010.30 1010.45 1010.61 1010.75 1010.85 1010.89 1010.86 1010.75 1010.56 1010.30 1009.98 1009.60 1009.18 1008.72 1008.23 1007.70 1007.15 1006.59 1006.03 1005.50 1005.02 1004.63 1004.36 1004.22 1004.24 1004.40 1004.71 1005.12 1005.62 1006.14
1014.05 1013.29 1012.59 1011.98 1011.47 1011.04 1010.70 1010.44 1010.24 1010.10 1010.02 1009.99 1010.02 1010.09 1010.20 1010.33 1010.47 1010.59 1010.69 1010.75 1010.75 1010.69 1010.57 1010.37 1010.11 1009.79 1009.41 1008.97 1008.48 1007.93 1007.34 1006.72 1006.10 1005.49 1004.92 1004.43 1004.06 1003.82 1003.73 1003.81 1004.03 1004.38 1004.82 1005.33
Thickness
5716 5706 5699 5706 5716 5718 5715 5714 5715 5729 5747 5743 5740 5745 5756 5764 5762 5760 5757 5756 5756 5758 5759 5759 5757 5755 5751 5748 5745 5741 5738 5735 5732 5726 5720 5715 5710 5708 5706 5703 5701 5698 5695 5691
5703 5701 5715 5722 5723 5723 5719 5716 5718 5730 5747 5744 5740 5745 5758 5764 5765 5766 5762 5758 5758 5756 5754 5753 5753 5751 5749 5746 5743 5740 5737 5735 5731 5726 5721 5716 5711 5707 5704 5702 5699 5696 5693 5690
5702 5711 5726 5724 5719 5719 5720 5720 5723 5727 5740 5745 5739 5735 5749 5762 5769 5769 5766 5764 5761 5758 5754 5752 5750 5748 5747 5745 5743 5741 5737 5734 5731 5726 5721 5715 5709 5705 5701 5699 5696 5695 5692 5689
5709 5722 5726 5723 5722 5723 5718 5736 5736 5734 5725 5718 5730 5709 5735 5749 5757 5761 5761 5760 5758 5759 5757 5753 5750 5747 5746 5746 5744 5741 5737 5734 5730 5726 5720 5713 5706 5701 5699 5697 5695 5693 5691 5688
5713 5724 5725 5724 5732 5736 5733 5746 5740 5737 5726 5715 5720 5710 5720 5742 5745 5753 5758 5759 5759 5760 5758 5754 5752 5750 5748 5747 5743 5740 5736 5733 5729 5725 5720 5713 5707 5703 5700 5697 5694 5692 5689 5687
5728 5739 5738 5739 5749 5751 5748 5740 5731 5722 5712 5700 5717 5710 5714 5728 5745 5753 5759 5760 5759 5759 5758 5755 5753 5749 5746 5744 5742 5739 5734 5731 5728 5724 5720 5714 5709 5704 5700 5697 5693 5690 5687 5686
5722 5735 5746 5752 5743 5745 5740 5714 5694 5693 5685 5693 5717 5713 5716 5742 5755 5758 5759 5760 5760 5758 5755 5751 5747 5745 5743 5741 5739 5737 5733 5729 5727 5724 5719 5715 5711 5706 5702 5698 5693 5690 5687 5685
5708 5710 5739 5750 5743 5735 5734 5716 5693 5685 5683 5690 5709 5709 5725 5752 5758 5762 5762 5761 5759 5756 5754 5752 5750 5747 5744 5742 5739 5736 5733 5730 5727 5724 5720 5716 5712 5707 5703 5700 5696 5692 5688 5687
5712 5714 5746 5755 5757 5748 5734 5721 5719 5699 5696 5688 5697 5715 5734 5749 5751 5755 5756 5755 5754 5753 5753 5752 5750 5748 5745 5743 5740 5738 5734 5731 5727 5724 5721 5716 5713 5709 5705 5701 5698 5694 5691 5689
5735 5722 5739 5753 5755 5753 5746 5732 5709 5698 5683 5676 5687 5699 5706 5731 5738 5745 5748 5749 5751 5752 5752 5752 5750 5749 5747 5745 5742 5739 5736 5732 5729 5725 5721 5718 5714 5710 5707 5703 5699 5696 5693 5691
5741 5722 5727 5738 5735 5733 5737 5731 5711 5693 5688 5674 5674 5689 5725 5730 5737 5740 5744 5748 5750 5750 5751 5752 5751 5750 5748 5744 5741 5737 5734 5731 5728 5725 5721 5718 5714 5711 5707 5703 5700 5697 5695 5692
5737 5717 5710 5726 5743 5750 5742 5732 5715 5695 5690 5682 5674 5689 5736 5736 5739 5741 5743 5747 5750 5751 5751 5751 5751 5748 5744 5741 5739 5736 5734 5731 5729 5726 5722 5718 5714 5711 5707 5704 5701 5699 5696 5693
5737 5716 5698 5702 5716 5733 5736 5736 5725 5707 5692 5681 5676 5694 5733 5733 5736 5738 5740 5742 5745 5746 5747 5746 5744 5743 5742 5740 5738 5736 5734 5731 5728 5725 5721 5717 5713 5710 5707 5705 5703 5700 5697 5694
5741 5716 5703 5697 5704 5718 5723 5730 5729 5711 5690 5687 5691 5701 5718 5724 5727 5732 5735 5738 5740 5741 5741 5740 5739 5739 5740 5740 5738 5736 5733 5731 5728 5724 5720 5716 5713 5711 5708 5706 5703 5700 5698 5695
5734 5715 5718 5718 5724 5726 5725 5725 5726 5717 5708 5697 5703 5706 5714 5721 5725 5728 5731 5733 5734 5734 5735 5736 5735 5736 5736 5736 5736 5734 5732 5730 5727 5723 5719 5717 5715 5712 5708 5705 5703 5701 5698 5696
5724 5716 5715 5713 5722 5721 5720 5724 5725 5722 5719 5711 5708 5707 5720 5722 5722 5722 5724 5725 5725 5726 5728 5731 5733 5734 5734 5735 5735 5733 5731 5729 5726 5722 5719 5717 5714 5710 5707 5705 5703 5700 5697 5695
5714 5711 5703 5696 5707 5713 5706 5720 5723 5719 5719 5714 5703 5706 5716 5715 5715 5715 5717 5718 5719 5721 5723 5725 5728 5731 5733 5735 5736 5734 5733 5729 5725 5721 5719 5716 5712 5709 5706 5705 5701 5698 5696 5694
5713 5704 5692 5689 5697 5690 5708 5727 5727 5717 5714 5715 5712 5711 5713 5712 5713 5714 5714 5713 5713 5716 5719 5721 5724 5728 5731 5734 5734 5734 5731 5727 5723 5720 5717 5714 5711 5708 5705 5702 5699 5697 5695 5693
5716 5703 5688 5680 5682 5689 5708 5720 5721 5711 5701 5708 5707 5707 5708 5710 5707 5704 5709 5710 5709 5711 5713 5716 5719 5723 5726 5727 5729 5729 5726 5723 5720 5718 5715 5714 5710 5706 5703 5699 5697 5696 5693 5691
5710 5702 5687 5677 5678 5676 5697 5718 5724 5711 5687 5700 5700 5698 5698 5697 5682 5686 5699 5702 5703 5705 5707 5709 5713 5715 5717 5720 5721 5721 5720 5718 5717 5718 5716 5714 5710 5706 5702 5700 5697 5694 5692 5690
5695 5688 5680 5673 5670 5679 5701 5712 5712 5683 5679 5693 5693 5691 5689 5683 5679 5684 5692 5694 5695 5696 5698 5701 5703 5704 5705 5709 5711 5710 5711 5712 5716 5717 5715 5711 5708 5705 5702 5699 5696 5693 5690 5687
5686 5679 5673 5667 5664 5671 5699 5700 5689 5684 5688 5687 5686 5684 5682 5680 5681 5681 5682 5682 5684 5685 5688 5690 5690 5692 5695 5697 5698 5699 5701 5708 5710 5710 5709 5708 5705 5703 5701 5695 5692 5689 5686 5683
5681 5680 5674 5672 5673 5684 5692 5690 5690 5687 5681 5679 5677 5676 5674 5671 5670 5670 5670 5670 5671 5672 5674 5676 5677 5679 5682 5684 5685 5686 5692 5697 5700 5702 5703 5703 5702 5699 5698 5693 5688 5684 5682 5679
5675 5679 5673 5670 5675 5678 5680 5681 5680 5678 5674 5672 5669 5667 5664 5660 5658 5657 5655 5655 5656 5657 5659 5661 5663 5665 5668 5670 5672 5674 5680 5685 5688 5691 5694 5695 5694 5693 5691 5690 5687 5682 5679 5676
5666 5667 5661 5660 5664 5666 5669 5669 5668 5666 5664 5661 5659 5657 5653 5649 5646 5643 5640 5640 5640 5641 5642 5644 5645 5648 5652 5656 5659 5662 5666 5670 5674 5679 5683 5685 5686 5687 5685 5684 5682 5681 5681 5679
5660 5659 5652 5653 5659 5653 5655 5659 5658 5654 5651 5649 5646 5643 5640 5636 5632 5630 5627 5625 5624 5624 5625 5626 5628 5631 5635 5640 5644 5648 5651 5655 5658 5663 5668 5672 5675 5676 5676 5673 5669 5670 5672 5673